Preview of NWS' New Version of Forecast
This preview is not operational and should not be used for support decisions.

Regional Weather Roundup (RWR)

Issued by National Weather Service (NWS)

                            
000
ASUS46 KPQR 190510
RWROR 

OREGON REGIONAL WEATHER ROUNDUP
NATIONAL WEATHER SERVICE PORTLAND OR
1000 PM PDT MON MAR 18 2019

NOTE: "FAIR" INDICATES FEW OR NO CLOUDS BELOW 12,000 FEET WITH
NO SIGNIFICANT WEATHER AND/OR OBSTRUCTIONS TO VISIBILITY.

ORZ001>013-190600-
NORTHWEST OREGON

  
CITY           SKY/WX    TMP DP  RH WIND       PRES   REMARKS
ASTORIA        CLEAR     58  30  34 E8        30.01R                  
TILLAMOOK      CLEAR     59  30  33 NE18G28   29.99S                  
NEWPORT        CLEAR     61  32  33 E12       29.97S                  
PORTLAND       CLEAR     56  31  38 E15       30.06S                  
VANCOUVER WA   CLEAR     58  29  33 E12       30.07S                  
SCAPPOOSE      CLEAR     57  32  38 N5        30.08R                  
HILLSBORO      CLEAR     56  30  37 E12G17    30.05R                  
AURORA         CLEAR     59  29  31 NE15G25   30.03S                  
MCMINNVILLE    CLEAR     55  31  39 N10       30.02S                  
SALEM          CLEAR     55  31  39 NW7       30.00R                  
CORVALLIS      CLEAR     55  37  50 N7        29.98R                  
EUGENE         CLEAR     54  38  54 N12       29.95R                  
$$

ORZ021-028-190600-
SOUTHWEST OREGON

  
CITY           SKY/WX    TMP DP  RH WIND       PRES   REMARKS
NORTH BEND     CLEAR     49  44  83 S7        29.96S                  
BROOKINGS      CLEAR     53  43  68 CALM      29.94S                  
ROSEBURG       CLEAR     59  41  51 CALM      29.93R                  
SEXTON SUMMIT  CLEAR     54  24  31 E7        30.00R                  
GRANTS PASS    FAIR      54  37  54 CALM      29.95R                  
MEDFORD        CLEAR     57  30  35 CALM      29.94R                  
$$

ORZ014>016-041-190600-
COLUMBIA GORGE

  
CITY           SKY/WX    TMP DP  RH WIND       PRES   REMARKS
TROUTDALE      CLEAR     53  34  48 E23G32    30.08S                  
HOOD RIVER     CLEAR     45  34  65 MISG      30.24R                  
THE DALLES     CLEAR     41  33  73 SE6       30.25R                  
$$

ORZ029>031-041-044-049-050-061>064-502-503-505>511-190600-
EASTERN OREGON

  
CITY           SKY/WX    TMP DP  RH WIND       PRES   REMARKS
MADRAS         CLEAR     36  32  87 CALM      30.23R                  
REDMOND        CLEAR     33  30  88 SW3       30.19R                  
BEND           CLEAR     32  30  93 CALM      30.19S                  
PRINEVILLE     CLEAR     32  30  93 MISG      30.20R                  
KLAMATH FALLS  CLEAR     49  27  42 CALM      30.06R                  
LAKEVIEW       CLEAR     39  29  67 SW7       30.11R                  
HERMISTON      CLEAR     36  32  85 SE5       30.24S                  
PENDLETON      CLEAR     37  32  82 SE6       30.22S                  
JOHN DAY       CLEAR     46  26  44 CALM      30.21R                  
MEACHAM        CLEAR     28  23  81 CALM      30.21R                  
LA GRANDE      CLEAR     37  28  70 CALM      30.24R                  
BAKER CITY     CLEAR     35  28  75 CALM      30.22S                  
BURNS          CLEAR     39  27  62 MISG      30.19S                  
ROME             N/A     42  24  49 E7        30.17R                  
ONTARIO        CLEAR     44  28  53 W3        30.22R                  
$$